[TLELIST] Archives

 

[TLELIST] Current TLEs

January 31st 2025 PDT

HST 1 20580U 90037B 25030.80655364 .00009489 00000-0 38625-3 0 9998 2 20580 28.4676 254.5411 0002714 15.0254 345.0421 15.22758261711707 ISS (ZARYA) 1 25544U 98067A 25030.94616898 .00017245 00000-0 30159-3 0 9991 2 25544 51.6392 266.7922 0002197 150.6796 37.3757 15.50733764493879 CXO 1 25867U 99040B 25031.93036384 .00000888 00000-0 00000-0 0 9991 2 25867 46.3828 136.9645 8617502 306.5684 1.0152 0.37801687 15438 ...Continue Reading

[TLELIST] Current TLEs

January 31st 2025 PDT

HST 1 20580U 90037B 25030.80655364 .00009489 00000-0 38625-3 0 9998 2 20580 28.4676 254.5411 0002714 15.0254 345.0421 15.22758261711707 ISS (ZARYA) 1 25544U 98067A 25030.94616898 .00017245 00000-0 30159-3 0 9991 2 25544 51.6392 266.7922 0002197 150.6796 37.3757 15.50733764493879 CXO 1 25867U 99040B 25031.93036384 .00000888 00000-0 00000-0 0 9991 2 25867 46.3828 136.9645 8617502 306.5684 1.0152 0.37801687 15438 ...Continue Reading

[TLELIST] Current TLEs

January 31st 2025 PDT

HST 1 20580U 90037B 25030.80655364 .00009489 00000-0 38625-3 0 9998 2 20580 28.4676 254.5411 0002714 15.0254 345.0421 15.22758261711707 ISS (ZARYA) 1 25544U 98067A 25030.94616898 .00017245 00000-0 30159-3 0 9991 2 25544 51.6392 266.7922 0002197 150.6796 37.3757 15.50733764493879 CXO 1 25867U 99040B 25031.93036384 .00000888 00000-0 00000-0 0 9991 2 25867 46.3828 136.9645 8617502 306.5684 1.0152 0.37801687 15438 ...Continue Reading

[TLELIST] Current TLEs

January 30th 2025 PDT

HST 1 20580U 90037B 25029.95454338 .00010112 00000-0 41235-3 0 9996 2 20580 28.4676 260.2939 0002663 6.9452 353.1178 15.22742027711575 ISS (ZARYA) 1 25544U 98067A 25030.28752407 .00017371 00000-0 30397-3 0 9999 2 25544 51.6396 270.0592 0002237 149.8639 318.8131 15.50711335493777 CXO 1 25867U 99040B 25031.93036384 .00000888 00000-0 00000-0 0 9991 2 25867 46.3828 136.9645 8617502 306.5684 1.0152 0.37801687 15438 ...Continue Reading

[TLELIST] Current TLEs

January 30th 2025 PDT

HST 1 20580U 90037B 25029.95454338 .00010112 00000-0 41235-3 0 9996 2 20580 28.4676 260.2939 0002663 6.9452 353.1178 15.22742027711575 ISS (ZARYA) 1 25544U 98067A 25030.28752407 .00017371 00000-0 30397-3 0 9999 2 25544 51.6396 270.0592 0002237 149.8639 318.8131 15.50711335493777 CXO 1 25867U 99040B 25031.93036384 .00000888 00000-0 00000-0 0 9991 2 25867 46.3828 136.9645 8617502 306.5684 1.0152 0.37801687 15438 ...Continue Reading

[TLELIST] Current TLEs

January 29th 2025 PDT

HST 1 20580U 90037B 25028.70928054 .00010007 00000-0 40831-3 0 9993 2 20580 28.4674 268.7024 0002622 353.7182 6.3379 15.22716153711389 ISS (ZARYA) 1 25544U 98067A 25029.19815771 .00017930 00000-0 31389-3 0 9994 2 25544 51.6395 275.4621 0002297 144.0764 359.2036 15.50674311493607 CXO 1 25867U 99040B 25026.63825163 .00000810 00000-0 00000-0 0 9998 2 25867 46.2701 137.2371 8623610 306.5001 0.4102 0.37801369 15410 ...Continue Reading

[TLELIST] Current TLEs

January 28th 2025 PDT

HST 1 20580U 90037B 25027.00520198 .00009462 00000-0 38603-3 0 9999 2 20580 28.4683 280.2067 0002535 335.2854 24.7618 15.22681064711123 ISS (ZARYA) 1 25544U 98067A 25028.03642316 .00010230 00000-0 18296-3 0 9997 2 25544 51.6404 281.2312 0002530 148.7900 344.9896 15.50622455493420 CXO 1 25867U 99040B 25026.63825163 .00000810 00000-0 00000-0 0 9998 2 25867 46.2701 137.2371 8623610 306.5001 0.4102 0.37801369 15410 ...Continue Reading

[TLELIST] Current TLEs

January 28th 2025 PDT

HST 1 20580U 90037B 25027.00520198 .00009462 00000-0 38603-3 0 9999 2 20580 28.4683 280.2067 0002535 335.2854 24.7618 15.22681064711123 ISS (ZARYA) 1 25544U 98067A 25028.03642316 .00010230 00000-0 18296-3 0 9997 2 25544 51.6404 281.2312 0002530 148.7900 344.9896 15.50622455493420 CXO 1 25867U 99040B 25026.63825163 .00000810 00000-0 00000-0 0 9998 2 25867 46.2701 137.2371 8623610 306.5001 0.4102 0.37801369 15410 ...Continue Reading

[TLELIST] Current TLEs

January 27th 2025 PDT

HST 1 20580U 90037B 25026.93965959 .00009686 00000-0 39538-3 0 9994 2 20580 28.4683 280.6491 0002537 334.6124 25.4345 15.22680322711371 ISS (ZARYA) 1 25544U 98067A 25027.19890714 .00020113 00000-0 35189-3 0 9991 2 25544 51.6414 285.3793 0002307 145.9619 349.5412 15.50607173493297 CXO 1 25867U 99040B 25026.63825150 .00000810 00000-0 00000+0 0 9993 2 25867 46.2701 137.2371 8623610 306.5001 0.4102 0.37801369 26568 ...Continue Reading

[TLELIST] Current TLEs

January 27th 2025 PDT

HST 1 20580U 90037B 25026.93965959 .00009686 00000-0 39538-3 0 9994 2 20580 28.4683 280.6491 0002537 334.6124 25.4345 15.22680322711371 ISS (ZARYA) 1 25544U 98067A 25027.19890714 .00020113 00000-0 35189-3 0 9991 2 25544 51.6414 285.3793 0002307 145.9619 349.5412 15.50607173493297 CXO 1 25867U 99040B 25026.63825150 .00000810 00000-0 00000+0 0 9993 2 25867 46.2701 137.2371 8623610 306.5001 0.4102 0.37801369 26568 ...Continue Reading
  • This mailing list is a public mailing list - anyone may join or leave, at any time.
  • This mailing list is announce-only.

International Space Station (ISS) / Hubble Space Telescope (HST) / Chandra X-Ray Observatory Orbital Data via EMAIL

Privacy Policy:

Private list